| time (UTC) | temp C | wind direction | speed KPH | gust KPH | rain 1hr cm | rain 24hr cm | rain mn cm | humidity % | barometer mb |
| 20260504070127 | 11 | 82 | 3.2 | 9.7 | 0.00 | 0.00 | 0.00 | 53 | 1007.7 |
| 20260504060147 | 12 | 98 | 3.2 | 12.9 | 0.00 | 0.00 | 0.00 | 52 | 1007.8 |
| 20260504050142 | 11 | 90 | 0.0 | 1.6 | 0.00 | 0.00 | 0.00 | 60 | 1008.0 |
| 20260504044638 | 10 | 96 | 0.0 | 1.6 | 0.00 | 0.00 | 0.00 | 65 | 1008.1 |
| 20260504043131 | 10 | 96 | 0.0 | 1.6 | 0.00 | 0.00 | 0.00 | 67 | 1008.1 |
| 20260504041626 | 10 | 96 | 0.0 | 0.0 | 0.00 | 0.00 | 0.00 | 67 | 1008.2 |
| 20260504040142 | 10 | 96 | 0.0 | 0.0 | 0.00 | 0.00 | 0.00 | 66 | 1008.3 |
| 20260504034639 | 10 | 96 | 0.0 | 1.6 | 0.00 | 0.00 | 0.00 | 68 | 1008.5 |
| 20260504033133 | 10 | 97 | 0.0 | 0.0 | 0.00 | 0.00 | 0.00 | 68 | 1008.6 |
| 20260504030135 | 10 | 97 | 0.0 | 0.0 | 0.00 | 0.00 | 0.00 | 68 | 1008.6 |
| 20260504024631 | 11 | 70 | 0.0 | 3.2 | 0.00 | 0.00 | 0.00 | 67 | 1008.8 |
| 20260504023128 | 11 | 91 | 0.0 | 4.8 | 0.00 | 0.00 | 0.00 | 68 | 1009.1 |
| 20260504021628 | 11 | 91 | 0.0 | 12.9 | 0.00 | 0.00 | 0.00 | 70 | 1009.4 |
| 20260504020128 | 11 | 94 | 6.4 | 16.1 | 0.00 | 0.00 | 0.00 | 68 | 1009.5 |
| 20260504014641 | 12 | 101 | 0.0 | 12.9 | 0.00 | 0.00 | 0.00 | 60 | 1009.7 |
| 20260504013132 | 12 | 107 | 3.2 | 19.3 | 0.00 | 0.00 | 0.00 | 54 | 1009.2 |
| 20260504011626 | 13 | 69 | 6.4 | 25.7 | 0.00 | 0.00 | 0.00 | 52 | 1009.0 |
| 20260504010150 | 13 | 76 | 8.0 | 25.7 | 0.00 | 0.00 | 0.00 | 49 | 1008.9 |
| 20260504004638 | 13 | 342 | 4.8 | 17.7 | 0.00 | 0.00 | 0.00 | 49 | 1008.6 |
| 20260504003137 | 12 | 83 | 3.2 | 8.0 | 0.00 | 0.00 | 0.00 | 51 | 1008.5 |
| 20260504001637 | 12 | 80 | 0.0 | 4.8 | 0.00 | 0.00 | 0.00 | 53 | 1008.3 |
| 20260504000130 | 12 | 77 | 0.0 | 1.6 | 0.00 | 0.00 | 0.00 | 51 | 1008.2 |
| 20260503234627 | 12 | 96 | 3.2 | 11.3 | 0.00 | 0.00 | 0.00 | 50 | 1008.7 |
| 20260503233124 | 12 | 51 | 3.2 | 12.9 | 0.00 | 0.00 | 0.00 | 48 | 1008.7 |
| 20260503231640 | 13 | 98 | 4.8 | 19.3 | 0.00 | 0.00 | 0.00 | 45 | 1008.6 |
| 20260503230138 | 13 | 115 | 0.0 | 8.0 | 0.00 | 0.00 | 0.00 | 46 | 1008.6 |
| 20260503224634 | 13 | 128 | 3.2 | 12.9 | 0.00 | 0.00 | 0.00 | 45 | 1008.5 |
| 20260503223148 | 13 | 110 | 1.6 | 9.7 | 0.00 | 0.00 | 0.00 | 45 | 1008.4 |
| 20260503221639 | 13 | 326 | 3.2 | 11.3 | 0.00 | 0.00 | 0.00 | 44 | 1008.4 |
| 20260503220135 | 13 | 82 | 4.8 | 14.5 | 0.00 | 0.00 | 0.00 | 44 | 1008.6 |
| 20260503214630 | 13 | 136 | 3.2 | 11.3 | 0.00 | 0.00 | 0.00 | 44 | 1008.5 |
| 20260503213123 | 13 | 82 | 3.2 | 12.9 | 0.00 | 0.00 | 0.00 | 47 | 1008.5 |
| 20260503211639 | 13 | 90 | 1.6 | 9.7 | 0.00 | 0.00 | 0.00 | 48 | 1008.5 |
| 20260503210136 | 13 | 60 | 3.2 | 8.0 | 0.00 | 0.00 | 0.00 | 45 | 1008.6 |
| 20260503204636 | 13 | 109 | 1.6 | 14.5 | 0.00 | 0.00 | 0.00 | 47 | 1008.7 |
| 20260503203128 | 13 | 91 | 3.2 | 22.5 | 0.00 | 0.00 | 0.00 | 45 | 1008.8 |
| 20260503201637 | 12 | 105 | 1.6 | 16.1 | 0.00 | 0.00 | 0.00 | 48 | 1008.9 |
| 20260503200155 | 12 | 66 | 4.8 | 11.3 | 0.00 | 0.00 | 0.00 | 45 | 1009.1 |
| 20260503194631 | 12 | 142 | 6.4 | 16.1 | 0.00 | 0.00 | 0.00 | 44 | 1009.1 |
| 20260503193144 | 12 | 91 | 4.8 | 12.9 | 0.00 | 0.00 | 0.00 | 43 | 1009.2 |
| 20260503191639 | 13 | 75 | 4.8 | 19.3 | 0.00 | 0.00 | 0.00 | 42 | 1009.4 |
| 20260503190133 | 13 | 57 | 6.4 | 20.9 | 0.00 | 0.00 | 0.00 | 41 | 1009.4 |
| 20260503184630 | 13 | 98 | 3.2 | 9.7 | 0.00 | 0.00 | 0.00 | 40 | 1009.7 |
| 20260503183125 | 13 | 127 | 6.4 | 16.1 | 0.00 | 0.00 | 0.00 | 40 | 1009.9 |
| 20260503181636 | 12 | 196 | 4.8 | 11.3 | 0.00 | 0.00 | 0.00 | 39 | 1010.1 |
| 20260503180146 | 11 | 77 | 4.8 | 17.7 | 0.00 | 0.00 | 0.00 | 40 | 1010.2 |
| 20260503174638 | 11 | 98 | 1.6 | 16.1 | 0.00 | 0.00 | 0.00 | 38 | 1010.5 |
| 20260503173152 | 12 | 115 | 6.4 | 12.9 | 0.00 | 0.00 | 0.00 | 39 | 1010.6 |
| 20260503171640 | 11 | 72 | 4.8 | 12.9 | 0.00 | 0.00 | 0.00 | 40 | 1010.7 |
| 20260503170136 | 11 | 93 | 4.8 | 14.5 | 0.00 | 0.00 | 0.00 | 38 | 1011.0 |
| 20260503160127 | 11 | 179 | 3.2 | 11.3 | 0.00 | 0.00 | 0.00 | 44 | 1011.8 |
| 20260503140129 | 8 | 84 | 6.4 | 17.7 | 0.00 | 0.00 | 0.00 | 55 | 1012.6 |
| 20260503130207 | 6 | 117 | 3.2 | 12.9 | 0.00 | 0.00 | 0.00 | 69 | 1012.9 |
| 20260503120128 | 5 | 122 | 1.6 | 12.9 | 0.00 | 0.00 | 0.00 | 73 | 1012.6 |
| 20260503110125 | 3 | 100 | 1.6 | 8.0 | 0.00 | 0.00 | 0.00 | 80 | 1012.2 |
| 20260503100133 | 3 | 105 | 0.0 | 1.6 | 0.00 | 0.00 | 0.00 | 80 | 1012.0 |
| 20260503090126 | 4 | 94 | 1.6 | 3.2 | 0.00 | 0.00 | 0.00 | 79 | 1012.1 |
| 20260503080126 | 4 | 95 | 0.0 | 3.2 | 0.00 | 0.00 | 0.00 | 78 | 1012.0 |